{"data":{"norad_id":48356,"epoch":"2026-05-24T21:44:03.465024Z","epoch_age_seconds":82608,"freshness":"FRESH","line1":"1 48356U 21038D   26144.90559566  .00008696  00000+0  29163-3 0  9994","line2":"2 48356  53.1612   3.9236 0001258 102.3350 257.7792 15.31701743278759","mean_motion":15.31701743,"eccentricity":0.0001258,"inclination_deg":53.1612,"raan_deg":3.9236,"arg_perigee_deg":102.335,"mean_anomaly_deg":257.7792,"bstar":0.00029163,"rev_number":27875,"period_min":94.013080978782,"perigee_km":469.8732113659,"apogee_km":471.59638751064,"semimajor_km":6848.8717994383,"source":"CELESTRAK","updated_at":"2026-05-25T13:38:16.684832Z"}}